星链-2000 (STARLINK-2000 )

导读 | 星芒AI

STARLINK-2000 是星链(Starlink)卫星互联网项目中的一个假设性卫星型号,代表未来星链卫星的升级版本。它预计具备更高的数据传输速率、更低的延迟以及更强的抗干扰能力,旨在为全球用户提供更稳定、高速的互联网服务。该卫星可能采用更先进的推进系统和太阳能技术,以提升在轨寿命和运行效率。作为星链计划的重要组成部分,STARLINK-2000 将进一步推动全球宽带覆盖,特别是在偏远和网络基础设施薄弱地区。

基本信息
目录编号:
47595
目录名称:
STARLINK-2000
国际标识:
2021-009AZ
轨道中心:
EARTH
卫星名称:
星链-2000
卫星全名:
星链-2000 (STARLINK-2000 )
卫星状态:
已陨落 最后检测时间 2025-02-15
发射日期:
2021-02-04 UTC
国别 :
美国 (US)
星等 :
--
轨道信息
数据来源 国际轨道数据
星历时间: 2025-02-15T21:56:26+0800
轨道信息已过期304天
半长轴: 6533.758km
偏心率: 0.0005483
轨道倾角: 53.020°
近地点辐角 224.820°
升交点赤经 299.364°
平近点角 229.528°
近地点: 152.04km
远地点: 159.206km
周期: 87.600分钟
每日圈数: 16.438352
详细信息
固有亮度:
5
最大亮度:
2.5
卫星平台:
Starlink V1.0
覆盖范围:
全球
运营商:
太空探索技术公司
运营商所在国:
美国
制造商(研发单位):
太空探索技术公司
制造商所在国:
美国
使用方式:
暂无
卫星简介
星链(Starlink)计划是由太空探索技术公司(SpaceX)提出的一个巨型低轨卫星互联网星座项目,计划在2019年至2024年间在太空搭建由约1.2万颗卫星组成的“星链”网络,其中1584颗将部署在地球上空550千米处的近地轨道,并从2020年开始工作。该卫星仍在工作。